Weather History for Catania, Italy

Change the Weather History Date:

Wednesday, August 20, 2014

  Actual Average Record
Temperature  
Mean Temperature 82 °F -  
Max Temperature 92 °F 86 °F 100 °F (2003)
Min Temperature 71 °F 64 °F 62 °F (2008)
Cooling Degree Days 16    
Growing Degree Days 32 (Base 50)    
Moisture  
Dew Point 67 °F    
Average Humidity 63    
Maximum Humidity 83    
Minimum Humidity 26    
Precipitation  
Precipitation 0.00 in 0.04 in - ()
Sea Level Pressure  
Sea Level Pressure 29.97 in    
Wind  
Wind Speed 8 mph ()    
Max Wind Speed 15 mph    
Max Gust Speed -    
Visibility 6.1 miles    
Events      
Averages and records for this station are not official NWS values.
T = Trace of Precipitation, MM = Missing Value Source: Averaged Metar Reports

Daily Weather History Graph

Daily Weather History Graph

Search for Another Location

Airport:

Trip Planner

Search our weather history database for the weather conditions in past years. The results will help you decide how hot, cold, wet, or windy it might be!

Date:

Astronomy

Aug. 20, 2014 Rise Set
Actual Time 6:19 AM CEST 7:45 PM CEST
Civil Twilight 5:52 AM CEST 8:13 PM CEST
Nautical Twilight 5:19 AM CEST 8:46 PM CEST
Astronomical Twilight 4:44 AM CEST 9:20 PM CEST
Moon 1:47 AM CEST (8/20) 4:15 PM CEST (8/20)
Length of Visible Light 14h 21m
Length of Day
13h 26m
Waning Crescent, 23% of the Moon is Illuminated
Aug 20
Waning Crescent
Aug 25
New
Sep 2
First Quarter
Sep 9
Full
Sep 16
Last Quarter

Hourly Weather History & Observations

Time (CEST) Temp. Heat Index Dew Point Humidity Pressure Visibility Wind Dir Wind Speed Gust Speed Precip Events Conditions
12:20 AM 77.0 °F - 64.4 °F 65% 29.98 in - WSW 6.9 mph - N/A   Clear
12:50 AM 77.0 °F - 66.2 °F 69% 29.98 in - West 10.4 mph - N/A   Clear
1:20 AM 77.0 °F - 66.2 °F 69% 29.98 in - West 15.0 mph - N/A   Clear
1:50 AM 77.0 °F - 66.2 °F 69% 29.98 in - WSW 13.8 mph - N/A   Clear
2:00 AM 76 °F - 66 °F 63% 29.97 in 6 mi WSW 11.5 mph - -  
2:20 AM 75.2 °F - 66.2 °F 73% 29.95 in - WSW 11.5 mph - N/A   Clear
2:50 AM 75.2 °F - 64.4 °F 69% 29.95 in - WSW 9.2 mph - N/A   Clear
3:20 AM 73.4 °F - 64.4 °F 73% 29.95 in - WSW 9.2 mph - N/A   Clear
3:50 AM 73.4 °F - 64.4 °F 73% 29.95 in - SW 6.9 mph - N/A   Clear
4:20 AM 73.4 °F - 64.4 °F 73% 29.95 in - WSW 9.2 mph - N/A   Clear
4:50 AM 71.6 °F - 64.4 °F 78% 29.95 in - West 4.6 mph - N/A   Clear
5:00 AM 72 °F - 64 °F 68% 29.96 in 6 mi West 4.6 mph - -  
5:20 AM 71.6 °F - 64.4 °F 78% 29.95 in - Variable 1.2 mph - N/A   Clear
5:50 AM 71.6 °F - 64.4 °F 78% 29.95 in - WSW 8.1 mph - N/A   Clear
6:20 AM 73.4 °F - 66.2 °F 78% 29.95 in - West 9.2 mph - N/A   Clear
6:50 AM 71.6 °F - 66.2 °F 83% 29.95 in - West 5.8 mph - N/A   Clear
7:20 AM 73.4 °F - 64.4 °F 73% 29.98 in - WSW 3.5 mph - N/A   Clear
7:50 AM 75.2 °F - 64.4 °F 69% 29.98 in - SW 6.9 mph - N/A   Clear
8:20 AM 78.8 °F - 62.6 °F 57% 29.98 in - West 9.2 mph - N/A   Clear
8:50 AM 80.6 °F 81.5 °F 60.8 °F 51% 29.98 in - West 10.4 mph - N/A   Clear
9:20 AM 82.4 °F 82.9 °F 60.8 °F 48% 29.98 in - WSW 11.5 mph - N/A   Clear
9:50 AM 84.2 °F 84.4 °F 60.8 °F 45% 29.98 in 6.2 mi WSW 10.4 mph - N/A   Partly Cloudy
10:20 AM 86.0 °F 86.1 °F 60.8 °F 43% 29.98 in 6.2 mi WSW 10.4 mph - N/A   Partly Cloudy
10:50 AM 87.8 °F 87.1 °F 59.0 °F 38% 29.98 in 6.2 mi WSW 10.4 mph - N/A   Partly Cloudy
11:00 AM 89 °F - 59 °F 26% 29.99 in 6 mi WSW 11.5 mph - -  
11:20 AM 91.4 °F 89.9 °F 57.2 °F 31% 29.98 in - West 9.2 mph - N/A   Clear
11:50 AM 86.0 °F 88.2 °F 66.2 °F 51% 29.98 in - Variable 9.2 mph - N/A   Clear
12:20 PM 87.8 °F 88.5 °F 62.6 °F 43% 29.98 in - ENE 10.4 mph - N/A   Clear
12:50 PM 86.0 °F 86.6 °F 62.6 °F 45% 29.98 in - ENE 11.5 mph - N/A   Clear
1:20 PM 86.0 °F 86.6 °F 62.6 °F 45% 29.98 in - East 10.4 mph - N/A   Clear
1:50 PM 87.8 °F 88.5 °F 62.6 °F 43% 29.98 in - East 10.4 mph - N/A   Clear
2:00 PM 87 °F - 64 °F 35% 29.98 in 6 mi East 10.4 mph - -  
2:20 PM 87.8 °F 87.6 °F 60.8 °F 40% 29.98 in - East 10.4 mph - N/A   Clear
2:50 PM 89.6 °F 92.2 °F 66.2 °F 46% 29.95 in - East 10.4 mph - N/A   Clear
3:20 PM 89.6 °F 94.7 °F 69.8 °F 52% 29.95 in - East 10.4 mph - N/A   Clear
3:50 PM 87.8 °F 93.8 °F 71.6 °F 58% 29.95 in - East 10.4 mph - N/A   Clear
4:20 PM 87.8 °F 93.8 °F 71.6 °F 58% 29.95 in - East 9.2 mph - N/A   Clear
4:50 PM 86.0 °F 93.4 °F 73.4 °F 66% 29.95 in - ENE 9.2 mph - N/A   Clear
5:00 PM 85 °F - 72 °F 58% 29.95 in 6 mi ENE 9.2 mph - -  
5:20 PM 84.2 °F 90.9 °F 73.4 °F 70% 29.95 in - ENE 10.4 mph - N/A   Clear
5:50 PM 82.4 °F 87.2 °F 71.6 °F 70% 29.95 in - ENE 9.2 mph - N/A   Clear
6:20 PM 82.4 °F 87.2 °F 71.6 °F 70% 29.92 in - ENE 9.2 mph - N/A   Clear
6:50 PM 82.4 °F 87.2 °F 71.6 °F 70% 29.92 in - NE 11.5 mph - N/A   Clear
7:20 PM 80.6 °F 84.6 °F 71.6 °F 74% 29.95 in - NE 9.2 mph - N/A   Clear
7:50 PM 78.8 °F - 73.4 °F 83% 29.95 in - NE 10.4 mph - N/A   Clear
8:00 PM 79 °F - 73 °F 76% 29.96 in 6 mi NE 9.2 mph - -  
8:20 PM 78.8 °F - 73.4 °F 83% 29.95 in - NE 9.2 mph - N/A   Clear
8:50 PM 78.8 °F - 73.4 °F 83% 29.98 in - NE 6.9 mph - N/A   Clear
9:20 PM 80.6 °F 85.4 °F 73.4 °F 79% 29.98 in - NE 6.9 mph - N/A   Clear
9:50 PM 80.6 °F 83.2 °F 68.0 °F 65% 29.98 in - NNE 5.8 mph - N/A   Clear
10:20 PM 80.6 °F 83.9 °F 69.8 °F 70% 29.98 in - ENE 4.6 mph - N/A   Clear
10:50 PM 80.6 °F 83.9 °F 69.8 °F 70% 29.98 in 6.2 mi NW 4.6 mph - N/A   Partly Cloudy
11:00 PM 79 °F - 70 °F 67% 29.99 in 6 mi West 5.8 mph - -  
11:20 PM 78.8 °F - 69.8 °F 74% 29.98 in 6.2 mi WNW 3.5 mph - N/A   Partly Cloudy
11:50 PM 78.8 °F - 69.8 °F 74% 29.98 in 6.2 mi WSW 4.6 mph - N/A   Partly Cloudy